Regional Weather Roundup
Issued by NWS

Home | Current Version | Previous Version | Graphics & Text | Print | Product List | Glossary On
Versions: 1 2 3 4 5 6 7 8 9 10 11 12 13 14 15 16 17 18 19 20 21 22 23 24 25 26 27
000
ASUS45 KSLC 110310
RWRUT

UTAH REGIONAL WEATHER ROUNDUP
NATIONAL WEATHER SERVICE SALT LAKE CITY UT
800 PM MST SUN DEC 10 2017

UTZ001>011-023>025-110400-

NORTHERN UTAH

CITY           SKY/WX    TMP DP  RH WIND       PRES   REMARKS
BRIGHAM CITY   CLEAR     27  21  80 CALM      30.60S
HILL AFB       CLEAR     27  20  77 CALM      30.57S
LOGAN          CLOUDY    22  17  81 S5        30.61F WCI  16
OGDEN          CLEAR     26  20  77 S5        30.57F WCI  20
SALT LAKE CITY CLEAR     29  26  89 CALM      30.60R FOG
TOOELE VALLEY  PTCLDY    21  19  93 CALM      30.61R FOG
WENDOVER       PTCLDY    20  15  81 N3        30.60R
HEBER CITY       N/A     18  10  73 CALM      30.54R
WEST JORDAN    CLEAR     24  22  91 CALM      30.59S

$$

UTZ011>015-024>027-110400-

CENTRAL/NORTHEAST UTAH

CITY           SKY/WX    TMP DP  RH WIND       PRES   REMARKS
PROVO AIRPORT  PTCLDY    23  19  85 CALM      30.59R
MOAB/CANYONLAN MOCLDY    26   4  38 CALM      30.51R
DELTA          MOCLDY    27  16  63 CALM      30.56S
PRICE          PTCLDY    26   1  34 N6        30.50S WCI  19
RICHFIELD      CLEAR     18   3  53 CALM      30.56R
ROOSEVELT      CLOUDY    19   7  58 SW6       30.56S WCI  11
VERNAL         CLOUDY    20   7  57 CALM      30.54R

$$

UTZ013>016-019>022-027-110400-

SOUTHERN UTAH

CITY           SKY/WX    TMP DP  RH WIND       PRES   REMARKS
BRYCE CANYON   CLEAR     18 -14  23 W9        30.54R WCI   7
CEDAR CITY     PTCLDY    27  10  49 CALM      30.50S
MILFORD        PTCLDY    21  11  65 NE6       30.54S WCI  13
ST GEORGE      CLEAR     42   7  23 CALM      30.42S
HANKSVILLE     MOCLDY    28   3  34 W3        30.54R
KANAB          CLEAR     41  -4  15 N12       30.50R
BLANDING         N/A     26  -1  29 NE6       30.56S WCI  20

$$

REGIONAL REPORTS     COLORADO/ARIZONA

CITY           SKY/WX    TMP DP  RH WIND       PRES   REMARKS
CRAIG, CO      CLOUDY    12   7  80 CALM      30.52F
GRAND JUNCTION CLOUDY    25   2  37 CALM      30.51R
RIFLE, CO      CLOUDY    26   2  35 CALM      30.53R
MONTROSE, CO   CLOUDY    24   2  38 S9        30.53F WCI  14
CORTEZ, CO     CLEAR     17  -1  45 E8        30.49S WCI   7
COLORADO CITY    N/A     28  -6  22 CALM      30.47S
PAGE, AZ       PTCLDY    36  15  42 CALM      30.48S
GRAND CANYON   PTCLDY    20  -5  33 NE7       30.47F WCI  11
KINGMAN, AZ    MOCLDY    40   2  20 E6        30.33S
FLAGSTAFF, AZ  MOCLDY    35  -9  15 E8        30.47R WCI  29

$$

REGIONAL REPORTS    NEVADA/IDAHO/WYOMING

CITY           SKY/WX    TMP DP  RH WIND       PRES   REMARKS
LAS VEGAS, NV  CLOUDY    53   5  14 SW6       30.32R
ELY, NY        PTCLDY    15  -2  46 S12       30.54S WCI   2
ELKO, NV       PTCLDY    19  16  88 CALM      30.52S
POCATELLO, ID  CLOUDY    17  13  84 CALM      30.59R
BURLEY, ID     CLEAR     22  19  89 NW3       30.57R
FORT BRIDGER,    N/A     34   8  34 W13       30.54S WCI  25
EVANSTON, WY   CLOUDY    33  12  41 CALM      30.54F
ROCK SPRINGS,  CLOUDY    34   4  28 SW16      30.47F WCI  24

$$




USA.gov is the U.S. government's official web portal to all federal, state and local government web resources and services.